Time,TemperatureF,DewpointF,PressureIn,WindDirection,WindDirectionDegrees,WindSpeedMPH,WindSpeedGustMPH,Humidity,HourlyPrecipIn,Conditions,Clouds,dailyrainin,SolarRadiationWatts/m^2,SoftwareType,DateUTC
2013-02-16 00:02:00,48.0,36.0,-100.00,North,350,3.0,9.0,62,0.00,,,0.00,0.000000,,2013-02-16 06:02:00,
2013-02-16 00:32:00,47.0,37.0,-100.00,NNW,339,3.0,8.0,67,0.00,,,0.00,0.000000,,2013-02-16 06:32:00,
2013-02-16 00:42:00,47.0,37.0,-100.00,NNW,339,3.0,8.0,67,0.00,,,0.00,0.000000,,2013-02-16 06:42:00,
2013-02-16 00:52:00,47.0,37.0,-100.00,NNW,339,3.0,8.0,67,0.00,,,0.00,0.000000,,2013-02-16 06:52:00,
2013-02-16 01:02:00,47.0,37.0,-100.00,NNW,339,3.0,8.0,67,0.00,,,0.00,0.000000,,2013-02-16 07:02:00,
2013-02-16 01:32:00,47.0,35.0,-100.00,NNW,334,4.0,10.0,64,0.00,,,0.00,0.000000,,2013-02-16 07:32:00,
2013-02-16 01:42:00,47.0,35.0,-100.00,NNW,334,4.0,10.0,64,0.00,,,0.00,0.000000,,2013-02-16 07:42:00,
2013-02-16 01:53:00,47.0,35.0,-100.00,NNW,334,4.0,10.0,64,0.00,,,0.00,0.000000,,2013-02-16 07:53:00,
2013-02-16 02:01:00,47.0,35.0,-100.00,NNW,334,4.0,10.0,64,0.00,,,0.00,0.000000,,2013-02-16 08:01:00,
2013-02-16 02:32:00,46.0,32.0,-100.00,NNW,345,5.0,10.0,58,0.00,,,0.00,0.000000,,2013-02-16 08:32:00,
2013-02-16 02:42:00,46.0,32.0,-100.00,NNW,345,5.0,10.0,58,0.00,,,0.00,0.000000,,2013-02-16 08:42:00,
2013-02-16 02:52:00,46.0,32.0,-100.00,NNW,345,5.0,10.0,58,0.00,,,0.00,0.000000,,2013-02-16 08:52:00,
2013-02-16 03:01:00,46.0,32.0,-100.00,NNW,345,5.0,10.0,58,0.00,,,0.00,0.000000,,2013-02-16 09:01:00,
2013-02-16 04:32:00,43.0,30.0,-100.00,NNW,339,4.0,11.0,60,-99.99,,,0.00,0.000000,,2013-02-16 10:32:00,
2013-02-16 04:42:00,43.0,30.0,-100.00,NNW,339,4.0,11.0,60,-99.99,,,0.00,0.000000,,2013-02-16 10:42:00,
2013-02-16 04:52:00,43.0,30.0,-100.00,NNW,339,4.0,11.0,60,-99.99,,,0.00,0.000000,,2013-02-16 10:52:00,
2013-02-16 05:02:00,43.0,30.0,-100.00,NNW,339,4.0,11.0,60,-99.99,,,0.00,0.000000,,2013-02-16 11:02:00,
2013-02-16 05:32:00,40.0,29.0,-100.00,NW,326,2.0,9.0,64,0.00,,,0.00,0.000000,,2013-02-16 11:32:00,
2013-02-16 05:42:00,40.0,29.0,-100.00,NW,326,2.0,9.0,64,0.00,,,0.00,0.000000,,2013-02-16 11:42:00,
2013-02-16 05:52:00,40.0,29.0,-100.00,NW,326,2.0,9.0,64,0.00,,,0.00,0.000000,,2013-02-16 11:52:00,
2013-02-16 06:01:00,40.0,29.0,-100.00,NW,326,2.0,9.0,64,0.00,,,0.00,0.000000,,2013-02-16 12:01:00,
2013-02-16 06:32:00,37.0,28.0,-100.00,NW,321,3.0,8.0,70,0.00,,,0.00,0.000000,,2013-02-16 12:32:00,
2013-02-16 06:42:00,37.0,28.0,-100.00,NW,321,3.0,8.0,70,0.00,,,0.00,0.000000,,2013-02-16 12:42:00,
2013-02-16 06:52:00,37.0,28.0,-100.00,NW,321,3.0,8.0,70,0.00,,,0.00,0.000000,,2013-02-16 12:52:00,
2013-02-16 07:02:00,37.0,28.0,-100.00,NW,321,3.0,8.0,70,0.00,,,0.00,0.000000,,2013-02-16 13:02:00,
2013-02-16 08:32:00,41.0,28.0,-100.00,NNW,345,5.0,13.0,59,-99.99,,,0.00,60.000000,,2013-02-16 14:32:00,
2013-02-16 08:42:00,41.0,28.0,-100.00,NNW,345,5.0,13.0,59,-99.99,,,0.00,60.000000,,2013-02-16 14:42:00,
2013-02-16 08:52:00,41.0,28.0,-100.00,NNW,345,5.0,13.0,59,-99.99,,,0.00,60.000000,,2013-02-16 14:52:00,
2013-02-16 09:01:00,41.0,28.0,-100.00,NNW,345,5.0,13.0,59,-99.99,,,0.00,60.000000,,2013-02-16 15:01:00,
2013-02-16 09:32:00,45.0,24.0,-100.00,North,353,6.0,12.0,43,0.00,,,0.00,305.000000,,2013-02-16 15:32:00,
2013-02-16 09:42:00,45.0,24.0,-100.00,North,353,6.0,12.0,43,0.00,,,0.00,305.000000,,2013-02-16 15:42:00,
2013-02-16 09:52:00,45.0,24.0,-100.00,North,353,6.0,12.0,43,0.00,,,0.00,305.000000,,2013-02-16 15:52:00,
2013-02-16 10:01:00,45.0,24.0,-100.00,North,353,6.0,12.0,43,0.00,,,0.00,305.000000,,2013-02-16 16:01:00,
2013-02-16 10:32:00,46.0,19.0,-100.00,NNW,345,7.0,16.0,33,0.00,,,0.00,471.000000,,2013-02-16 16:32:00,
2013-02-16 10:42:00,46.0,19.0,-100.00,NNW,345,7.0,16.0,33,0.00,,,0.00,471.000000,,2013-02-16 16:42:00,
2013-02-16 10:52:00,46.0,19.0,-100.00,NNW,345,7.0,16.0,33,0.00,,,0.00,471.000000,,2013-02-16 16:52:00,
2013-02-16 11:01:00,46.0,19.0,-100.00,NNW,345,7.0,16.0,33,0.00,,,0.00,471.000000,,2013-02-16 17:01:00,
2013-02-16 11:32:00,49.0,15.0,-100.00,NNW,336,6.0,15.0,25,0.00,,,0.00,595.000000,,2013-02-16 17:32:00,
2013-02-16 11:42:00,49.0,15.0,-100.00,NNW,336,6.0,15.0,25,0.00,,,0.00,595.000000,,2013-02-16 17:42:00,
2013-02-16 11:52:00,49.0,15.0,-100.00,NNW,336,6.0,15.0,25,0.00,,,0.00,595.000000,,2013-02-16 17:52:00,
2013-02-16 12:02:00,49.0,15.0,-100.00,NNW,336,6.0,15.0,25,0.00,,,0.00,595.000000,,2013-02-16 18:02:00,
2013-02-16 12:33:00,51.0,17.0,-100.00,NNW,346,7.0,16.0,26,0.00,,,0.00,667.000000,,2013-02-16 18:33:00,
2013-02-16 12:42:00,51.0,17.0,-100.00,NNW,346,7.0,16.0,26,0.00,,,0.00,667.000000,,2013-02-16 18:42:00,
2013-02-16 12:52:00,51.0,17.0,-100.00,NNW,346,7.0,16.0,26,0.00,,,0.00,667.000000,,2013-02-16 18:52:00,
2013-02-16 13:02:00,51.0,17.0,-100.00,NNW,346,7.0,16.0,26,0.00,,,0.00,667.000000,,2013-02-16 19:02:00,
2013-02-16 13:32:00,51.0,15.0,-100.00,NNW,337,7.0,18.0,23,0.00,,,0.00,697.000000,,2013-02-16 19:32:00,
2013-02-16 13:42:00,51.0,15.0,-100.00,NNW,337,7.0,18.0,23,0.00,,,0.00,697.000000,,2013-02-16 19:42:00,
2013-02-16 13:52:00,51.0,15.0,-100.00,NNW,337,7.0,18.0,23,0.00,,,0.00,697.000000,,2013-02-16 19:52:00,
2013-02-16 14:01:00,51.0,15.0,-100.00,NNW,337,7.0,18.0,23,0.00,,,0.00,697.000000,,2013-02-16 20:01:00,
2013-02-16 14:32:00,51.0,15.0,-100.00,NNW,332,7.0,25.0,23,0.00,,,0.00,633.000000,,2013-02-16 20:32:00,
2013-02-16 14:42:00,51.0,15.0,-100.00,NNW,332,7.0,25.0,23,0.00,,,0.00,633.000000,,2013-02-16 20:42:00,
2013-02-16 14:52:00,51.0,15.0,-100.00,NNW,332,7.0,25.0,23,0.00,,,0.00,633.000000,,2013-02-16 20:52:00,
2013-02-16 15:02:00,51.0,15.0,-100.00,NNW,332,7.0,25.0,23,0.00,,,0.00,633.000000,,2013-02-16 21:02:00,
2013-02-16 15:32:00,51.0,12.0,-100.00,NNW,342,9.0,21.0,21,0.00,,,0.00,524.000000,,2013-02-16 21:32:00,
2013-02-16 15:42:00,51.0,12.0,-100.00,NNW,342,9.0,21.0,21,0.00,,,0.00,524.000000,,2013-02-16 21:42:00,
2013-02-16 15:52:00,51.0,12.0,-100.00,NNW,342,9.0,21.0,21,0.00,,,0.00,524.000000,,2013-02-16 21:52:00,
2013-02-16 16:01:00,51.0,12.0,-100.00,NNW,342,9.0,21.0,21,0.00,,,0.00,524.000000,,2013-02-16 22:01:00,
2013-02-16 16:32:00,50.0,16.0,-100.00,NNW,339,5.0,16.0,25,0.00,,,0.00,374.000000,,2013-02-16 22:32:00,
2013-02-16 16:42:00,50.0,16.0,-100.00,NNW,339,5.0,16.0,25,0.00,,,0.00,374.000000,,2013-02-16 22:42:00,
2013-02-16 16:52:00,50.0,16.0,-100.00,NNW,339,5.0,16.0,25,0.00,,,0.00,374.000000,,2013-02-16 22:52:00,
2013-02-16 17:02:00,50.0,16.0,-100.00,NNW,339,5.0,16.0,25,0.00,,,0.00,374.000000,,2013-02-16 23:02:00,
2013-02-16 17:32:00,46.0,18.0,-100.00,NNW,331,5.0,17.0,32,0.00,,,0.00,135.000000,,2013-02-16 23:32:00,
2013-02-16 17:42:00,46.0,18.0,-100.00,NNW,331,5.0,17.0,32,0.00,,,0.00,135.000000,,2013-02-16 23:42:00,
2013-02-16 17:52:00,46.0,18.0,-100.00,NNW,331,5.0,17.0,32,0.00,,,0.00,135.000000,,2013-02-16 23:52:00,
2013-02-16 18:02:00,46.0,18.0,-100.00,NNW,331,5.0,17.0,32,0.00,,,0.00,135.000000,,2013-02-17 00:02:00,
2013-02-16 18:32:00,42.0,20.0,-100.00,NW,317,2.0,9.0,41,0.00,,,0.00,8.000000,,2013-02-17 00:32:00,
2013-02-16 18:42:00,42.0,20.0,-100.00,NW,317,2.0,9.0,41,0.00,,,0.00,8.000000,,2013-02-17 00:42:00,
2013-02-16 18:52:00,42.0,20.0,-100.00,NW,317,2.0,9.0,41,0.00,,,0.00,8.000000,,2013-02-17 00:52:00,
2013-02-16 19:01:00,42.0,20.0,-100.00,NW,317,2.0,9.0,41,0.00,,,0.00,8.000000,,2013-02-17 01:01:00,
2013-02-16 20:32:00,35.0,24.0,-100.00,WSW,254,0.0,0.0,63,-99.99,,,0.00,0.000000,,2013-02-17 02:32:00,
2013-02-16 20:42:00,35.0,24.0,-100.00,WSW,254,0.0,0.0,63,-99.99,,,0.00,0.000000,,2013-02-17 02:42:00,
2013-02-16 20:52:00,35.0,24.0,-100.00,WSW,254,0.0,0.0,63,-99.99,,,0.00,0.000000,,2013-02-17 02:52:00,
2013-02-16 21:02:00,35.0,24.0,-100.00,WSW,254,0.0,0.0,63,-99.99,,,0.00,0.000000,,2013-02-17 03:02:00,
2013-02-16 21:32:00,35.0,26.0,-100.00,West,277,0.0,2.0,70,0.00,,,0.00,0.000000,,2013-02-17 03:32:00,
2013-02-16 21:42:00,35.0,26.0,-100.00,West,277,0.0,2.0,70,0.00,,,0.00,0.000000,,2013-02-17 03:42:00,
2013-02-16 21:52:00,35.0,26.0,-100.00,West,277,0.0,2.0,70,0.00,,,0.00,0.000000,,2013-02-17 03:52:00,
2013-02-16 22:01:00,35.0,26.0,-100.00,West,277,0.0,2.0,70,0.00,,,0.00,0.000000,,2013-02-17 04:01:00,
2013-02-16 22:32:00,35.0,22.0,-100.00,NE,36,3.0,4.0,59,0.00,,,0.00,0.000000,,2013-02-17 04:32:00,
2013-02-16 22:42:00,35.0,22.0,-100.00,NE,36,3.0,4.0,59,0.00,,,0.00,0.000000,,2013-02-17 04:42:00,
2013-02-16 22:52:00,35.0,22.0,-100.00,NE,36,3.0,4.0,59,0.00,,,0.00,0.000000,,2013-02-17 04:52:00,
2013-02-16 23:02:00,35.0,22.0,-100.00,NE,36,3.0,4.0,59,0.00,,,0.00,0.000000,,2013-02-17 05:02:00,
2013-02-16 23:33:00,33.0,23.0,-100.00,NE,42,2.0,4.0,65,0.00,,,0.00,0.000000,,2013-02-17 05:33:00,
2013-02-16 23:42:00,33.0,23.0,-100.00,NE,42,2.0,4.0,65,0.00,,,0.00,0.000000,,2013-02-17 05:42:00,
2013-02-16 23:52:00,33.0,23.0,-100.00,NE,42,2.0,4.0,65,0.00,,,0.00,0.000000,,2013-02-17 05:52:00,